OK2BOZ-1 Weather Reports


time (UTC)temp
C
wind
direction
speed
KPH
gust
KPH
rain 1hr
cm
rain 24hr
cm
rain mn
cm
humidity
%
barometer
mb
20260503070600 20 324 1.6 1.6 0.00 0.00 0.00 41 1019.2
20260503060300 18 235 1.6 1.6 0.00 0.00 0.00 46 1018.9
20260503054714 18 271 0.0 1.6 0.00 0.00 0.00 46 1018.9
20260503054200 18 282 0.0 0.0 0.00 0.00 0.00 47 1018.9
20260503053646 18 273 0.0 1.6 0.00 0.00 0.00 47 1018.9
20260503053130 18 267 0.0 0.0 0.00 0.00 0.00 47 1018.8
20260503052616 17 270 0.0 0.0 0.00 0.00 0.00 48 1018.9
20260503052101 17 270 0.0 1.6 0.00 0.00 0.00 48 1018.9
20260503051547 17 264 0.0 1.6 0.00 0.00 0.00 47 1018.9
20260503051031 16 266 0.0 1.6 0.00 0.00 0.00 50 1018.9
20260503050516 15 264 0.0 0.0 0.00 0.00 0.00 53 1018.9
20260503050002 14 278 0.0 1.6 0.00 0.00 0.00 53 1018.9
20260503045448 15 270 0.0 0.0 0.00 0.00 0.00 52 1018.9
20260503044933 15 258 0.0 0.0 0.00 0.00 0.00 54 1018.9
20260503044419 14 270 0.0 0.0 0.00 0.00 0.00 57 1018.9
20260503043906 12 263 0.0 0.0 0.00 0.00 0.00 61 1018.9
20260503043351 12 272 0.0 0.0 0.00 0.00 0.00 64 1018.9
20260503042836 11 276 0.0 0.0 0.00 0.00 0.00 73 1018.9
20260503042322 11 267 0.0 0.0 0.00 0.00 0.00 93 1018.8
20260503041808 10 270 0.0 0.0 0.00 0.00 0.00 10 1018.8
20260503041254 8 270 0.0 0.0 0.00 0.00 0.00 10 1018.7
20260503040741 6 270 0.0 0.0 0.00 0.00 0.00 10 1018.7